Theta_e
313 313 312 313 315 315 317 318 320 322 326 326 330 331 334 334 335 336 335 334 334 333 332 332 332 333 333 333 333 336 338 336 332 332 333 334 336 335 335 334 333 331 329 325
314 314 314 315 315 316 316 316 318 320 324 327 328 328 332 333 334 336 335 334 334 333 329 328 329 331 331 332 336 337 338 337 336 335 334 334 330 326 326 328 324 320 318 311
314 314 316 315 314 314 315 317 318 318 321 326 327 327 330 331 332 334 334 334 333 332 326 326 327 329 329 328 333 335 334 334 334 334 332 331 325 320 318 315 313 308 305 302
314 314 314 315 314 314 314 316 317 317 319 326 326 326 330 330 330 331 333 333 332 329 324 323 324 327 328 325 330 330 331 331 332 330 327 324 319 312 310 311 306 302 300 300
313 314 314 314 314 314 314 315 315 316 317 320 324 325 326 330 329 330 330 330 329 327 323 320 320 321 325 325 323 324 328 328 325 320 316 313 312 311 309 305 301 299 299 299
314 314 314 314 314 314 314 313 314 315 316 317 319 324 325 327 329 328 328 327 327 325 321 318 317 317 317 317 319 319 318 315 316 313 313 311 311 307 305 303 304 303 300 299
313 313 314 314 313 314 314 313 313 313 314 316 317 319 325 325 327 328 326 326 324 323 319 316 315 314 312 313 313 313 312 312 312 312 310 308 306 305 305 304 304 303 302 299
313 313 313 314 313 313 313 313 315 313 315 315 317 317 319 324 325 327 326 325 324 322 318 316 314 312 311 310 310 309 308 307 305 304 304 303 303 303 304 305 305 304 301 298
312 313 314 315 315 314 313 313 315 316 316 317 316 317 319 321 324 324 326 325 324 321 318 316 313 312 310 309 308 307 306 305 304 303 302 302 304 304 303 303 302 300 298 298
315 316 315 314 315 314 314 314 315 316 314 315 315 316 317 319 321 322 324 326 323 321 319 316 314 311 310 309 308 306 305 305 303 302 301 302 302 301 300 300 300 299 299 298
314 315 315 315 314 314 314 314 314 315 316 316 315 316 318 320 321 321 323 326 323 321 320 316 313 311 310 308 307 305 305 304 303 302 301 301 300 299 300 299 298 298 298 298
310 313 316 316 315 315 314 315 315 314 314 316 318 317 318 320 321 321 324 326 324 322 320 317 314 311 309 308 307 306 305 304 302 301 301 300 299 298 299 298 298 297 297 297
305 311 314 313 313 314 314 314 314 316 317 316 316 318 318 318 318 320 321 324 325 323 320 316 314 312 310 308 307 306 305 304 302 301 301 299 298 298 299 298 297 297 296 297
303 308 311 314 313 314 314 315 315 316 317 317 317 315 316 318 319 319 321 323 324 323 320 317 314 312 310 308 308 307 305 304 302 301 300 298 298 298 298 297 296 296 296 296
303 305 307 308 310 311 312 314 315 316 316 317 317 317 316 317 318 320 319 322 321 323 320 317 315 313 310 309 308 307 305 304 303 302 301 298 299 298 298 297 297 297 297 297
302 304 303 304 304 308 310 311 312 314 316 316 317 316 318 318 317 317 319 319 321 322 321 318 315 313 311 309 308 307 305 304 303 302 301 299 300 299 298 297 297 297 297 296
297 300 301 302 302 304 308 309 311 313 314 316 316 317 316 316 317 318 318 318 317 323 322 319 316 313 311 309 308 307 305 304 303 302 301 300 299 299 297 297 296 296 295 295
296 296 298 301 302 306 305 307 309 311 313 313 314 315 316 316 316 316 316 318 318 320 322 319 316 314 312 310 308 307 305 304 303 302 301 300 299 298 297 296 295 295 295 294
298 297 298 299 301 302 303 305 308 310 312 313 313 314 314 315 315 316 315 317 320 321 322 319 317 314 312 310 308 307 305 303 302 301 301 300 299 297 296 296 296 295 294 294
299 300 299 299 300 301 302 304 305 308 309 310 310 311 311 314 318 317 316 316 318 321 321 319 316 314 312 310 308 307 305 303 302 301 300 299 298 297 296 296 296 295 295 295
298 298 301 300 300 300 302 303 304 305 309 305 304 304 305 310 311 312 315 316 316 320 320 318 316 315 312 310 308 307 305 303 302 301 300 298 298 297 296 296 296 295 296 295
296 299 300 301 302 301 301 304 308 304 305 302 300 300 300 300 306 308 311 316 319 319 319 318 317 315 312 310 308 307 305 304 302 301 299 298 298 297 297 296 296 295 296 295
297 298 299 298 300 301 300 299 301 302 300 302 299 298 297 297 298 304 307 309 313 318 319 318 317 314 313 310 308 307 305 304 302 300 299 298 298 297 297 297 296 295 295 294
294 294 295 295 296 296 298 299 298 297 299 299 297 295 296 296 296 299 303 305 309 314 317 317 317 315 313 310 309 307 305 304 302 300 298 298 297 297 297 296 295 294 294 294
293 293 294 294 295 294 295 295 296 296 295 295 295 294 294 295 295 296 301 301 305 308 312 316 316 315 313 311 308 307 305 303 301 300 298 297 297 296 296 295 295 294 294 294
293 293 293 294 293 294 294 293 293 293 293 293 293 293 294 293 295 295 298 299 302 305 308 313 315 315 314 311 308 307 305 303 301 299 298 297 296 296 295 295 294 295 294 295
Wind_Speed
18 13 16 18 20 24 22 24 26 22 23 25 22 21 21 26 27 26 26 26 26 23 21 20 20 21 22 20 15 16 15 16 17 17 15 13 11 10 11 10 9 7 5 4
14 19 17 18 20 21 24 25 26 24 23 20 21 22 21 21 24 27 27 28 28 27 23 20 19 19 20 16 16 16 15 15 15 15 13 12 11 11 8 7 6 5 4 3
19 15 19 16 18 21 22 23 23 26 18 5 17 20 18 21 22 25 27 29 29 30 25 23 21 21 16 15 18 17 16 16 15 15 15 13 11 8 6 6 6 5 4 3
18 18 19 17 15 18 21 21 21 23 24 10 18 11 17 18 19 20 27 27 27 28 25 22 22 22 19 14 18 18 17 17 16 14 13 10 9 13 12 8 6 4 3 2
18 19 18 19 20 15 19 18 19 23 23 16 20 15 16 26 21 23 21 27 28 29 28 25 24 21 21 19 13 14 17 16 17 14 12 15 19 15 13 8 6 6 5 5
20 23 17 16 15 17 17 16 19 20 16 17 22 17 18 18 24 22 23 28 27 29 30 28 25 24 23 21 23 23 21 20 20 22 20 19 18 15 11 10 8 6 6 6
20 24 21 19 13 15 15 14 11 12 14 15 22 24 15 23 21 24 25 37 38 33 31 32 31 29 25 25 25 24 22 21 21 22 23 21 18 16 14 12 9 8 6 6
16 18 23 20 24 18 19 18 12 14 15 17 23 25 23 19 22 32 38 36 37 35 34 33 32 31 29 28 26 25 24 23 22 22 20 20 17 16 16 14 14 12 9 8
16 26 23 18 23 23 23 19 19 18 19 14 16 23 26 20 25 27 31 46 45 41 37 34 32 32 32 30 29 28 27 23 22 21 20 19 19 18 19 19 15 12 11 10
9 17 18 25 15 15 19 16 15 12 21 21 21 23 17 20 25 27 23 35 43 45 40 38 35 34 33 32 30 29 26 25 24 22 21 21 21 18 16 17 15 15 14 11
13 10 16 21 22 16 14 15 18 16 13 16 18 17 20 18 16 20 22 39 46 46 47 44 41 40 36 32 29 30 28 27 25 24 23 22 19 19 18 17 15 15 14 13
12 6 9 21 20 22 22 21 19 13 21 16 14 18 18 16 10 9 16 35 40 47 47 43 39 38 34 32 32 34 31 30 29 25 25 23 21 20 19 18 17 16 15 14
11 5 9 18 17 21 22 23 17 18 15 20 17 15 13 25 20 15 16 29 43 49 46 43 42 39 37 36 33 34 33 32 31 30 27 26 24 22 21 19 18 17 15 15
11 8 12 14 19 21 18 22 23 20 14 15 16 25 23 21 19 16 12 17 18 45 45 44 41 40 38 37 36 34 33 31 31 31 29 27 25 24 22 20 19 17 16 15
6 10 14 20 23 27 25 25 23 22 21 18 19 23 22 21 23 13 18 29 11 40 44 47 45 44 43 41 39 36 35 35 33 31 30 29 27 24 22 21 20 19 17 15
13 13 12 21 22 25 28 26 25 23 24 24 25 25 20 19 29 25 10 14 36 41 47 45 43 43 43 44 42 40 39 38 36 32 30 30 29 26 25 23 22 21 19 16
19 13 14 21 21 22 17 26 25 25 23 22 19 19 19 20 16 19 16 22 24 41 43 45 48 47 44 44 43 41 40 40 38 35 33 32 31 28 27 25 23 21 19 17
22 19 14 16 18 19 20 19 23 25 24 24 24 24 23 19 22 20 24 23 35 20 37 43 45 44 43 42 41 40 40 40 39 37 35 34 33 31 28 26 24 22 20 18
21 18 11 13 16 21 28 20 23 20 20 16 18 20 24 34 28 18 29 21 21 23 36 45 44 42 43 43 43 41 41 41 39 39 39 37 35 33 31 28 26 23 20 18
11 20 14 14 18 20 22 22 35 23 20 15 21 19 21 30 8 8 25 23 13 28 33 39 42 43 45 47 48 48 45 44 43 42 42 38 36 34 33 30 27 24 21 18
13 11 14 16 17 14 19 26 32 18 8 17 16 23 26 18 19 34 28 5 19 34 31 38 42 48 51 51 49 47 44 44 42 40 40 39 37 34 32 30 28 26 23 20
19 13 8 5 9 20 14 11 6 11 16 14 19 21 28 35 36 36 32 16 6 16 28 38 44 50 51 52 53 49 47 43 39 39 39 38 36 33 32 31 29 26 25 23
14 13 7 5 7 20 32 25 11 15 18 19 17 21 28 34 39 36 32 30 24 18 27 33 40 45 47 51 52 50 46 45 43 43 41 39 37 35 34 34 31 29 26 24
22 28 16 18 25 23 20 9 20 21 16 17 26 20 22 32 38 36 29 30 26 8 18 26 33 40 45 49 49 48 46 46 47 47 44 43 41 38 35 32 31 30 27 26
16 21 21 27 27 28 33 29 22 18 21 22 27 28 22 27 34 37 28 28 26 23 14 24 31 38 41 45 46 46 47 49 50 48 46 45 43 40 35 32 31 29 28 26
21 21 16 22 25 26 30 36 35 35 35 33 32 33 31 24 31 38 30 29 28 27 25 12 32 34 38 44 46 47 49 52 53 49 47 47 46 42 39 37 35 30 28 27
Wind_Direction
224 233 235 236 227 250 253 246 242 234 244 194 205 207 169 180 188 190 186 179 185 180 177 173 171 171 196 213 204 190 196 204 211 213 218 220 222 221 220 238 233 231 234 214
240 234 244 250 257 247 241 257 256 262 238 192 207 218 174 181 188 197 187 186 184 181 167 175 170 177 206 202 181 181 190 193 194 185 185 184 176 185 196 207 203 193 205 228
241 247 238 234 254 258 252 243 247 257 260 227 200 213 194 173 188 202 202 197 190 179 175 178 177 176 200 190 181 181 189 191 190 190 190 189 186 170 160 177 183 178 189 208
247 254 256 252 252 246 258 252 261 264 261 198 220 223 190 177 198 203 203 201 192 176 179 182 179 175 176 197 178 179 187 194 192 191 185 170 156 138 173 200 174 167 145 131
252 248 251 251 257 254 260 280 278 268 266 251 226 229 220 193 199 204 200 202 196 181 181 183 182 175 171 169 168 173 177 182 175 165 158 145 176 187 184 179 155 138 143 153
258 263 262 243 260 255 249 258 263 269 270 256 249 224 234 226 193 191 201 203 203 183 180 183 184 176 175 174 174 176 170 175 173 175 177 181 189 180 174 147 143 154 150 139
254 252 249 254 246 264 259 240 244 249 246 249 251 248 223 228 198 188 196 197 198 186 182 182 182 177 177 176 181 176 178 174 177 176 179 184 178 174 171 153 157 145 152 139
267 243 233 228 235 235 236 231 228 235 231 241 246 243 244 223 261 205 195 195 190 185 185 187 185 182 181 185 185 175 180 180 179 179 179 178 178 164 156 161 159 174 169 146
251 265 281 266 221 219 234 248 246 234 259 263 261 249 245 239 218 254 201 187 186 181 184 189 191 185 185 186 185 180 182 182 177 176 176 164 164 172 174 173 176 168 148 140
308 303 277 267 293 226 228 244 247 225 239 249 253 257 260 227 222 226 233 188 177 178 183 185 187 187 187 193 188 185 183 181 180 176 175 173 175 181 170 162 165 160 155 145
346 289 277 291 252 256 236 237 248 268 261 233 253 250 256 267 272 227 228 169 174 177 183 184 184 186 187 187 185 182 180 180 181 180 173 178 174 171 169 173 164 158 152 145
3 311 283 273 284 277 266 260 246 231 253 259 259 251 268 270 302 358 246 164 176 180 180 181 183 178 179 183 188 182 179 185 184 176 179 177 175 171 173 168 165 160 155 151
347 314 292 267 260 268 261 259 256 266 263 242 262 269 240 264 264 290 312 189 180 175 172 175 178 180 180 181 184 185 180 188 185 179 183 177 174 174 175 174 168 164 158 152
308 273 275 275 291 305 299 290 265 257 254 261 246 259 262 270 270 257 232 225 179 167 167 173 177 182 181 181 184 184 182 186 180 181 183 178 175 177 177 173 167 162 158 154
273 279 297 290 289 292 296 296 295 289 291 263 254 256 252 265 277 290 249 185 233 163 170 178 180 182 180 181 182 183 185 184 181 182 183 176 175 178 175 170 166 163 160 161
299 285 285 290 289 290 289 284 279 272 269 269 280 256 268 251 259 272 249 249 194 180 192 181 180 181 181 181 181 184 184 182 179 181 182 176 178 179 176 172 172 167 168 164
284 283 281 272 289 288 281 260 265 269 271 280 282 293 263 269 272 278 276 187 263 179 184 181 181 183 181 182 182 184 182 180 178 179 183 181 178 179 177 177 176 173 170 165
254 257 262 269 286 260 254 277 274 271 273 281 277 276 284 287 281 269 258 172 234 228 183 181 181 182 182 182 181 184 182 181 178 176 182 184 179 181 178 177 175 173 172 169
222 238 255 246 251 271 276 256 263 259 287 339 350 347 349 343 335 292 281 258 239 211 187 182 182 180 180 181 178 182 183 181 180 178 185 186 184 181 178 177 177 177 172 169
270 213 229 243 254 251 262 261 268 278 274 23 0 2 353 343 338 328 299 249 229 206 181 175 178 181 181 182 180 182 184 184 183 182 189 186 185 184 179 180 179 176 173 176
287 288 231 230 239 264 278 294 298 277 293 49 8 8 356 346 336 326 354 268 267 189 185 180 182 184 185 183 180 182 184 185 184 184 191 185 185 184 180 181 179 175 172 173
267 270 252 246 267 247 261 311 354 360 8 10 11 4 350 339 337 343 352 7 111 169 184 187 185 183 183 184 182 182 185 184 183 184 185 183 183 181 180 180 179 174 174 179
276 286 310 284 266 305 322 323 316 331 339 342 3 347 349 336 331 337 343 349 352 182 190 196 187 182 184 185 185 183 185 180 181 182 182 182 180 176 182 183 180 175 182 182
280 284 278 289 268 277 283 298 307 320 327 323 324 346 335 323 323 325 337 340 341 324 196 203 196 188 184 186 187 185 183 179 181 183 182 180 178 177 186 186 181 182 183 180
266 282 284 277 277 294 288 292 299 309 305 303 305 316 320 313 311 316 324 326 330 331 324 202 201 194 191 186 186 183 182 181 181 183 181 178 178 182 182 182 181 186 185 186
253 255 253 263 288 288 291 295 295 298 298 297 300 303 304 309 307 306 311 314 322 322 316 273 196 197 193 188 185 185 183 183 184 180 179 178 178 183 179 181 177 184 189 187